Location: San Antonio de Areco
(34.2500°S, 59.4670°W)
Time: 14:15:19
(UTC-03:00)

ISS - Visible Passes

Search period start: 26 May 2018 00:00
Search period end: 05 June 2018 00:00
Orbit: 402 x 407 km, 51.6° (Epoch: 26 May)

Date Brightness Start Highest point End Pass type
(mag) Time Alt. Az. Time Alt. Az. Time Alt. Az.
26 May -0.3 06:00:29 10° NE 06:01:04 10° NE 06:01:38 10° ENE visible
27 May -3.4 06:41:40 10° NW 06:44:55 64° NE 06:48:14 10° SE visible
28 May -1.9 05:52:23 27° NE 05:52:48 28° NE 05:55:43 10° ESE visible
28 May -2.5 07:26:31 10° W 07:29:16 24° SW 07:32:03 10° SSE visible
29 May -3.4 06:36:16 38° WSW 06:36:54 43° SW 06:40:07 10° SE visible
30 May -1.2 05:47:02 18° SE 05:47:02 18° SE 05:47:58 10° SE visible
30 May -1.6 07:20:01 10° SW 07:21:31 12° SSW 07:23:02 10° S visible
31 May -1.7 06:30:12 17° S 06:30:12 17° S 06:31:33 10° SSE visible
